Year,Month,Day,Hour,Minute,Value (Times are PST for temperature in C)
2017,05,27,00,00,16.60
2017,05,27,00,01,16.60
2017,05,27,00,02,16.60
2017,05,27,00,03,16.50
2017,05,27,00,04,16.50
2017,05,27,00,05,16.50
2017,05,27,00,06,16.50
2017,05,27,00,07,16.40
2017,05,27,00,08,16.40
2017,05,27,00,09,16.40
2017,05,27,00,10,16.40
2017,05,27,00,11,16.40
2017,05,27,00,12,16.30
2017,05,27,00,13,16.30
2017,05,27,00,14,16.30
2017,05,27,00,15,16.30
2017,05,27,00,16,16.30
2017,05,27,00,17,16.30
2017,05,27,00,18,16.30
2017,05,27,00,19,16.30
2017,05,27,00,20,16.20
2017,05,27,00,21,16.20
2017,05,27,00,22,16.20
2017,05,27,00,23,16.20
2017,05,27,00,24,16.20
2017,05,27,00,25,16.20
2017,05,27,00,26,16.20
2017,05,27,00,27,16.10
2017,05,27,00,28,16.10
2017,05,27,00,29,16.10
2017,05,27,00,30,16.10
2017,05,27,00,31,16.10
2017,05,27,00,32,16.00
2017,05,27,00,33,16.00
2017,05,27,00,34,16.00
2017,05,27,00,35,16.00
2017,05,27,00,36,15.90
2017,05,27,00,37,15.90
2017,05,27,00,38,15.90
2017,05,27,00,39,15.90
2017,05,27,00,40,15.90
2017,05,27,00,41,15.90
2017,05,27,00,42,15.80
2017,05,27,00,43,15.80
2017,05,27,00,44,15.80
2017,05,27,00,45,15.80
2017,05,27,00,46,15.70
2017,05,27,00,47,15.70
2017,05,27,00,48,15.70
2017,05,27,00,49,15.60
2017,05,27,00,50,15.60
2017,05,27,00,51,15.60
2017,05,27,00,52,15.50
2017,05,27,00,53,15.50
2017,05,27,00,54,15.40
2017,05,27,00,55,15.40
2017,05,27,00,56,15.40
2017,05,27,00,57,15.40
2017,05,27,00,58,15.40
2017,05,27,00,59,15.40
2017,05,27,01,00,15.40
2017,05,27,01,01,15.30
2017,05,27,01,02,15.30
2017,05,27,01,03,15.30
2017,05,27,01,04,15.30
2017,05,27,01,05,15.30
2017,05,27,01,06,15.30
2017,05,27,01,07,15.30
2017,05,27,01,08,15.30
2017,05,27,01,09,15.30
2017,05,27,01,10,15.20
2017,05,27,01,11,15.20
2017,05,27,01,12,15.20
2017,05,27,01,13,15.20
2017,05,27,01,14,15.20
2017,05,27,01,15,15.20
2017,05,27,01,16,15.20
2017,05,27,01,17,15.20
2017,05,27,01,18,15.20
2017,05,27,01,19,15.20
2017,05,27,01,20,15.20
2017,05,27,01,21,15.10
2017,05,27,01,22,15.10
2017,05,27,01,23,15.10
2017,05,27,01,24,15.10
2017,05,27,01,25,15.10
2017,05,27,01,26,15.10
2017,05,27,01,27,15.10
2017,05,27,01,28,15.10
2017,05,27,01,29,15.10
2017,05,27,01,30,15.10
2017,05,27,01,31,15.10
2017,05,27,01,32,15.00
2017,05,27,01,33,15.00
2017,05,27,01,34,15.00
2017,05,27,01,35,15.00
2017,05,27,01,36,15.00
2017,05,27,01,37,15.00
2017,05,27,01,38,15.00
2017,05,27,01,39,15.00
2017,05,27,01,40,15.00
2017,05,27,01,41,15.00
2017,05,27,01,42,15.00
2017,05,27,01,43,15.00
2017,05,27,01,44,15.00
2017,05,27,01,45,15.00
2017,05,27,01,46,15.00
2017,05,27,01,47,15.10
2017,05,27,01,48,15.10
2017,05,27,01,49,15.10
2017,05,27,01,50,15.10
2017,05,27,01,51,15.10
2017,05,27,01,52,15.00
2017,05,27,01,53,15.00
2017,05,27,01,54,15.00
2017,05,27,01,55,15.00
2017,05,27,01,56,15.00
2017,05,27,01,57,14.90
2017,05,27,01,58,14.90
2017,05,27,01,59,14.90
2017,05,27,02,00,14.90
2017,05,27,02,01,14.90
2017,05,27,02,02,14.90
2017,05,27,02,03,14.90
2017,05,27,02,04,14.80
2017,05,27,02,05,14.80
2017,05,27,02,06,14.80
2017,05,27,02,07,14.80
2017,05,27,02,08,14.80
2017,05,27,02,09,14.70
2017,05,27,02,10,14.70
2017,05,27,02,11,14.70
2017,05,27,02,12,14.70
2017,05,27,02,13,14.70
2017,05,27,02,14,14.70
2017,05,27,02,15,14.70
2017,05,27,02,16,14.70
2017,05,27,02,17,14.70
2017,05,27,02,18,14.60
2017,05,27,02,19,14.60
2017,05,27,02,20,14.60
2017,05,27,02,21,14.60
2017,05,27,02,22,14.60
2017,05,27,02,23,14.60
2017,05,27,02,24,14.60
2017,05,27,02,25,14.50
2017,05,27,02,26,14.50
2017,05,27,02,27,14.40
2017,05,27,02,28,14.30
2017,05,27,02,29,14.30
2017,05,27,02,30,14.20
2017,05,27,02,31,14.20
2017,05,27,02,32,14.10
2017,05,27,02,33,14.00
2017,05,27,02,34,14.00
2017,05,27,02,35,13.90
2017,05,27,02,36,13.90
2017,05,27,02,37,13.90
2017,05,27,02,38,13.90
2017,05,27,02,39,13.90
2017,05,27,02,40,13.90
2017,05,27,02,41,13.80
2017,05,27,02,42,13.80
2017,05,27,02,43,13.80
2017,05,27,02,44,13.80
2017,05,27,02,45,13.80
2017,05,27,02,46,13.80
2017,05,27,02,47,13.80
2017,05,27,02,48,13.80
2017,05,27,02,49,13.80
2017,05,27,02,50,13.80
2017,05,27,02,51,13.80
2017,05,27,02,52,13.80
2017,05,27,02,53,13.80
2017,05,27,02,54,13.80
2017,05,27,02,55,13.70
2017,05,27,02,56,13.70
2017,05,27,02,57,13.70
2017,05,27,02,58,13.70
2017,05,27,02,59,13.70
2017,05,27,03,00,13.60
2017,05,27,03,01,13.60
2017,05,27,03,02,13.60
2017,05,27,03,03,13.50
2017,05,27,03,04,13.50
2017,05,27,03,05,13.50
2017,05,27,03,06,13.40
2017,05,27,03,07,13.40
2017,05,27,03,08,13.40
2017,05,27,03,09,13.40
2017,05,27,03,10,13.40
2017,05,27,03,11,13.40
2017,05,27,03,12,13.40
2017,05,27,03,13,13.30
2017,05,27,03,14,13.30
2017,05,27,03,15,13.30
2017,05,27,03,16,13.30
2017,05,27,03,17,13.20
2017,05,27,03,18,13.20
2017,05,27,03,19,13.10
2017,05,27,03,20,13.10
2017,05,27,03,21,13.10
2017,05,27,03,22,13.10
2017,05,27,03,23,13.10
2017,05,27,03,24,13.00
2017,05,27,03,25,13.00
2017,05,27,03,26,13.00
2017,05,27,03,27,12.90
2017,05,27,03,28,12.90
2017,05,27,03,29,12.90
2017,05,27,03,30,12.90
2017,05,27,03,31,12.90
2017,05,27,03,32,12.90
2017,05,27,03,33,12.90
2017,05,27,03,34,12.90
2017,05,27,03,35,12.90
2017,05,27,03,36,12.90
2017,05,27,03,37,12.90
2017,05,27,03,38,12.90
2017,05,27,03,39,12.90
2017,05,27,03,40,12.90
2017,05,27,03,41,12.90
2017,05,27,03,42,12.90
2017,05,27,03,43,12.90
2017,05,27,03,44,12.90
2017,05,27,03,45,13.00
2017,05,27,03,46,13.00
2017,05,27,03,47,13.00
2017,05,27,03,48,13.10
2017,05,27,03,49,13.10
2017,05,27,03,50,13.10
2017,05,27,03,51,13.10
2017,05,27,03,52,13.10
2017,05,27,03,53,13.10
2017,05,27,03,54,13.10
2017,05,27,03,55,13.10
2017,05,27,03,56,13.10
2017,05,27,03,57,13.10
2017,05,27,03,58,13.10
2017,05,27,03,59,13.10
2017,05,27,04,00,13.00
2017,05,27,04,01,13.00
2017,05,27,04,02,13.00
2017,05,27,04,03,13.00
2017,05,27,04,04,13.00
2017,05,27,04,05,12.90
2017,05,27,04,06,12.90
2017,05,27,04,07,12.90
2017,05,27,04,08,12.90
2017,05,27,04,09,12.80
2017,05,27,04,10,12.80
2017,05,27,04,11,12.70
2017,05,27,04,12,12.70
2017,05,27,04,13,12.70
2017,05,27,04,14,12.60
2017,05,27,04,15,12.60
2017,05,27,04,16,12.50
2017,05,27,04,17,12.50
2017,05,27,04,18,12.40
2017,05,27,04,19,12.40
2017,05,27,04,20,12.40
2017,05,27,04,21,12.30
2017,05,27,04,22,12.30
2017,05,27,04,23,12.30
2017,05,27,04,24,12.30
2017,05,27,04,25,12.20
2017,05,27,04,26,12.20
2017,05,27,04,27,12.20
2017,05,27,04,28,12.20
2017,05,27,04,29,12.10
2017,05,27,04,30,12.10
2017,05,27,04,31,12.20
2017,05,27,04,32,12.20
2017,05,27,04,33,12.20
2017,05,27,04,34,12.20
2017,05,27,04,35,12.20
2017,05,27,04,36,12.20
2017,05,27,04,37,12.30
2017,05,27,04,38,12.30
2017,05,27,04,39,12.30
2017,05,27,04,40,12.30
2017,05,27,04,41,12.30
2017,05,27,04,42,12.40
2017,05,27,04,43,12.40
2017,05,27,04,44,12.40
2017,05,27,04,45,12.40
2017,05,27,04,46,12.40
2017,05,27,04,47,12.40
2017,05,27,04,48,12.40
2017,05,27,04,49,12.40
2017,05,27,04,50,12.30
2017,05,27,04,51,12.30
2017,05,27,04,52,12.30
2017,05,27,04,53,12.30
2017,05,27,04,54,12.30
2017,05,27,04,55,12.30
2017,05,27,04,56,12.30
2017,05,27,04,57,12.20
2017,05,27,04,58,12.20
2017,05,27,04,59,12.20
2017,05,27,05,00,12.20
2017,05,27,05,01,12.20
2017,05,27,05,02,12.20
2017,05,27,05,03,12.20
2017,05,27,05,04,12.20
2017,05,27,05,05,12.20
2017,05,27,05,06,12.20
2017,05,27,05,07,12.20
2017,05,27,05,08,12.20
2017,05,27,05,09,12.20
2017,05,27,05,10,12.20
2017,05,27,05,11,12.20
2017,05,27,05,12,12.20
2017,05,27,05,13,12.30
2017,05,27,05,14,12.30
2017,05,27,05,15,12.40
2017,05,27,05,16,12.40
2017,05,27,05,17,12.40
2017,05,27,05,18,12.40
2017,05,27,05,19,12.40
2017,05,27,05,20,12.40
2017,05,27,05,21,12.40
2017,05,27,05,22,12.40
2017,05,27,05,23,12.40
2017,05,27,05,24,12.40
2017,05,27,05,25,12.30
2017,05,27,05,26,12.30
2017,05,27,05,27,12.30
2017,05,27,05,28,12.30
2017,05,27,05,29,12.20
2017,05,27,05,30,12.20
2017,05,27,05,31,12.20
2017,05,27,05,32,12.10
2017,05,27,05,33,12.10
2017,05,27,05,34,12.10
2017,05,27,05,35,12.10
2017,05,27,05,36,12.10
2017,05,27,05,37,12.00
2017,05,27,05,38,12.00
2017,05,27,05,39,12.00
2017,05,27,05,40,11.90
2017,05,27,05,41,11.90
2017,05,27,05,42,11.90
2017,05,27,05,43,11.80
2017,05,27,05,44,11.80
2017,05,27,05,45,11.80
2017,05,27,05,46,11.80
2017,05,27,05,47,11.80
2017,05,27,05,48,11.80
2017,05,27,05,49,11.80
2017,05,27,05,50,11.70
2017,05,27,05,51,11.70
2017,05,27,05,52,11.70
2017,05,27,05,53,11.70
2017,05,27,05,54,11.70
2017,05,27,05,55,11.60
2017,05,27,05,56,11.60
2017,05,27,05,57,11.70
2017,05,27,05,58,11.60
2017,05,27,05,59,11.60
2017,05,27,06,00,11.60
2017,05,27,06,01,11.60
2017,05,27,06,02,11.60
2017,05,27,06,03,11.60
2017,05,27,06,04,11.60
2017,05,27,06,05,11.60
2017,05,27,06,06,11.60
2017,05,27,06,07,11.60
2017,05,27,06,08,11.60
2017,05,27,06,09,11.60
2017,05,27,06,10,11.60
2017,05,27,06,11,11.60
2017,05,27,06,12,11.60
2017,05,27,06,13,11.60
2017,05,27,06,14,11.60
2017,05,27,06,15,11.60
2017,05,27,06,16,11.60
2017,05,27,06,17,11.60
2017,05,27,06,18,11.60
2017,05,27,06,19,11.60
2017,05,27,06,20,11.60
2017,05,27,06,21,11.70
2017,05,27,06,22,11.70
2017,05,27,06,23,11.70
2017,05,27,06,24,11.70
2017,05,27,06,25,11.70
2017,05,27,06,26,11.70
2017,05,27,06,27,11.70
2017,05,27,06,28,11.70
2017,05,27,06,29,11.70
2017,05,27,06,30,11.70
2017,05,27,06,31,11.70
2017,05,27,06,32,11.70
2017,05,27,06,33,11.80
2017,05,27,06,34,11.80
2017,05,27,06,35,11.80
2017,05,27,06,36,11.80
2017,05,27,06,37,11.80
2017,05,27,06,38,11.80
2017,05,27,06,39,11.80
2017,05,27,06,40,11.80
2017,05,27,06,41,11.80
2017,05,27,06,42,11.80
2017,05,27,06,43,11.80
2017,05,27,06,44,11.80
2017,05,27,06,45,11.80
2017,05,27,06,46,11.90
2017,05,27,06,47,11.90
2017,05,27,06,48,11.90
2017,05,27,06,49,11.90
2017,05,27,06,50,12.00
2017,05,27,06,51,12.00
2017,05,27,06,52,12.00
2017,05,27,06,53,12.10
2017,05,27,06,54,12.10
2017,05,27,06,55,12.10
2017,05,27,06,56,12.10
2017,05,27,06,57,12.20
2017,05,27,06,58,12.20
2017,05,27,06,59,12.20
2017,05,27,07,00,12.30
2017,05,27,07,01,12.30
2017,05,27,07,02,12.30
2017,05,27,07,03,12.30
2017,05,27,07,04,12.30
2017,05,27,07,05,12.30
2017,05,27,07,06,12.40
2017,05,27,07,07,12.40
2017,05,27,07,08,12.40
2017,05,27,07,09,12.40
2017,05,27,07,10,12.40
2017,05,27,07,11,12.50
2017,05,27,07,12,12.50
2017,05,27,07,13,12.60
2017,05,27,07,14,12.60
2017,05,27,07,15,12.60
2017,05,27,07,16,12.70
2017,05,27,07,17,12.70
2017,05,27,07,18,12.70
2017,05,27,07,19,12.80
2017,05,27,07,20,12.80
2017,05,27,07,21,12.80
2017,05,27,07,22,12.80
2017,05,27,07,23,12.90
2017,05,27,07,24,12.90
2017,05,27,07,25,13.00
2017,05,27,07,26,13.00
2017,05,27,07,27,13.10
2017,05,27,07,28,13.10
2017,05,27,07,29,13.10
2017,05,27,07,30,13.10
2017,05,27,07,31,13.20
2017,05,27,07,32,13.10
2017,05,27,07,33,13.10
2017,05,27,07,34,13.10
2017,05,27,07,35,13.10
2017,05,27,07,36,13.10
2017,05,27,07,37,13.20
2017,05,27,07,38,13.20
2017,05,27,07,39,13.20
2017,05,27,07,40,13.20
2017,05,27,07,41,13.20
2017,05,27,07,42,13.20
2017,05,27,07,43,13.20
2017,05,27,07,44,13.20
2017,05,27,07,45,13.10
2017,05,27,07,46,13.10
2017,05,27,07,47,13.10
2017,05,27,07,48,13.10
2017,05,27,07,49,13.00
2017,05,27,07,50,13.00
2017,05,27,07,51,12.90
2017,05,27,07,52,12.90
2017,05,27,07,53,12.90
2017,05,27,07,54,12.90
2017,05,27,07,55,13.00
2017,05,27,07,56,13.00
2017,05,27,07,57,13.00
2017,05,27,07,58,13.00
2017,05,27,07,59,13.00
2017,05,27,08,00,13.10
2017,05,27,08,01,13.10
2017,05,27,08,02,13.10
2017,05,27,08,03,13.10
2017,05,27,08,04,13.10
2017,05,27,08,05,13.10
2017,05,27,08,06,13.10
2017,05,27,08,07,13.10
2017,05,27,08,08,13.10
2017,05,27,08,09,13.10
2017,05,27,08,10,13.20
2017,05,27,08,11,13.20
2017,05,27,08,12,13.20
2017,05,27,08,13,13.30
2017,05,27,08,14,13.30
2017,05,27,08,15,13.30
2017,05,27,08,16,13.40
2017,05,27,08,17,13.40
2017,05,27,08,18,13.40
2017,05,27,08,19,13.50
2017,05,27,08,20,13.60
2017,05,27,08,21,13.60
2017,05,27,08,22,13.70
2017,05,27,08,23,13.70
2017,05,27,08,24,13.70
2017,05,27,08,25,13.70
2017,05,27,08,26,13.70
2017,05,27,08,27,13.70
2017,05,27,08,28,13.70
2017,05,27,08,29,13.70
2017,05,27,08,30,13.70
2017,05,27,08,31,13.60
2017,05,27,08,32,13.60
2017,05,27,08,33,13.60
2017,05,27,08,34,13.70
2017,05,27,08,35,13.70
2017,05,27,08,36,13.70
2017,05,27,08,37,13.80
2017,05,27,08,38,13.80
2017,05,27,08,39,13.90
2017,05,27,08,40,13.90
2017,05,27,08,41,13.90
2017,05,27,08,42,13.80
2017,05,27,08,43,13.80
2017,05,27,08,44,13.80
2017,05,27,08,45,13.80
2017,05,27,08,46,13.80
2017,05,27,08,47,13.80
2017,05,27,08,48,13.80
2017,05,27,08,49,13.90
2017,05,27,08,50,14.00
2017,05,27,08,51,14.00
2017,05,27,08,52,14.10
2017,05,27,08,53,14.10
2017,05,27,08,54,14.10
2017,05,27,08,55,14.10
2017,05,27,08,56,14.10
2017,05,27,08,57,14.10
2017,05,27,08,58,14.20
2017,05,27,08,59,14.20
2017,05,27,09,00,14.30
2017,05,27,09,01,14.40
2017,05,27,09,02,14.50
2017,05,27,09,03,14.60
2017,05,27,09,04,14.60
2017,05,27,09,05,14.60
2017,05,27,09,06,14.70
2017,05,27,09,07,14.70
2017,05,27,09,08,14.80
2017,05,27,09,09,14.80
2017,05,27,09,10,14.80
2017,05,27,09,11,14.80
2017,05,27,09,12,14.80
2017,05,27,09,13,14.80
2017,05,27,09,14,14.90
2017,05,27,09,15,14.90
2017,05,27,09,16,14.90
2017,05,27,09,17,14.90
2017,05,27,09,18,14.90
2017,05,27,09,19,14.80
2017,05,27,09,20,14.90
2017,05,27,09,21,14.90
2017,05,27,09,22,15.00
2017,05,27,09,23,15.00
2017,05,27,09,24,15.00
2017,05,27,09,25,15.00
2017,05,27,09,26,15.00
2017,05,27,09,27,15.00
2017,05,27,09,28,15.10
2017,05,27,09,29,15.10
2017,05,27,09,30,15.20
2017,05,27,09,31,15.30
2017,05,27,09,32,15.30
2017,05,27,09,33,15.30
2017,05,27,09,34,15.30
2017,05,27,09,35,15.30
2017,05,27,09,36,15.30
2017,05,27,09,37,15.30
2017,05,27,09,38,15.30
2017,05,27,09,39,15.30
2017,05,27,09,40,15.30
2017,05,27,09,41,15.20
2017,05,27,09,42,15.30
2017,05,27,09,43,15.30
2017,05,27,09,44,15.30
2017,05,27,09,45,15.30
2017,05,27,09,46,15.30
2017,05,27,09,47,15.40
2017,05,27,09,48,15.40
2017,05,27,09,49,15.50
2017,05,27,09,50,15.50
2017,05,27,09,51,15.50
2017,05,27,09,52,15.60
2017,05,27,09,53,15.60
2017,05,27,09,54,15.60
2017,05,27,09,55,15.60
2017,05,27,09,56,15.60
2017,05,27,09,57,15.60
2017,05,27,09,58,15.60
2017,05,27,09,59,15.70
2017,05,27,10,00,15.70
2017,05,27,10,01,15.70
2017,05,27,10,02,15.70
2017,05,27,10,03,15.70
2017,05,27,10,04,15.80
2017,05,27,10,05,15.80
2017,05,27,10,06,15.90
2017,05,27,10,07,16.00
2017,05,27,10,08,16.00
2017,05,27,10,09,16.10
2017,05,27,10,10,16.10
2017,05,27,10,11,16.20
2017,05,27,10,12,16.20
2017,05,27,10,13,16.30
2017,05,27,10,14,16.40
2017,05,27,10,15,16.40
2017,05,27,10,16,16.50
2017,05,27,10,17,16.60
2017,05,27,10,18,16.70
2017,05,27,10,19,16.80
2017,05,27,10,20,17.00
2017,05,27,10,21,17.10
2017,05,27,10,22,17.20
2017,05,27,10,23,17.30
2017,05,27,10,24,17.40
2017,05,27,10,25,17.50
2017,05,27,10,26,17.70
2017,05,27,10,27,17.80
2017,05,27,10,28,17.80
2017,05,27,10,29,17.90
2017,05,27,10,30,17.90
2017,05,27,10,31,17.90
2017,05,27,10,32,18.00
2017,05,27,10,33,18.10
2017,05,27,10,34,18.20
2017,05,27,10,35,18.30
2017,05,27,10,36,18.30
2017,05,27,10,37,18.40
2017,05,27,10,38,18.40
2017,05,27,10,39,18.50
2017,05,27,10,40,18.60
2017,05,27,10,41,18.60
2017,05,27,10,42,18.70
2017,05,27,10,43,18.80
2017,05,27,10,44,19.00
2017,05,27,10,45,19.10
2017,05,27,10,46,19.20
2017,05,27,10,47,19.20
2017,05,27,10,48,19.20
2017,05,27,10,49,19.20
2017,05,27,10,50,19.20
2017,05,27,10,51,19.20
2017,05,27,10,52,19.30
2017,05,27,10,53,19.30
2017,05,27,10,54,19.30
2017,05,27,10,55,19.30
2017,05,27,10,56,19.40
2017,05,27,10,57,19.40
2017,05,27,10,58,19.40
2017,05,27,10,59,19.30
2017,05,27,11,00,19.30
2017,05,27,11,01,19.30
2017,05,27,11,02,19.20
2017,05,27,11,03,19.20
2017,05,27,11,04,19.20
2017,05,27,11,05,19.20
2017,05,27,11,06,19.20
2017,05,27,11,07,19.20
2017,05,27,11,08,19.20
2017,05,27,11,09,19.20
2017,05,27,11,10,19.10
2017,05,27,11,11,19.10
2017,05,27,11,12,19.10
2017,05,27,11,13,19.20
2017,05,27,11,14,19.20
2017,05,27,11,15,19.30
2017,05,27,11,16,19.40
2017,05,27,11,17,19.40
2017,05,27,11,18,19.40
2017,05,27,11,19,19.40
2017,05,27,11,20,19.40
2017,05,27,11,21,19.40
2017,05,27,11,22,19.40
2017,05,27,11,23,19.50
2017,05,27,11,24,19.60
2017,05,27,11,25,19.60
2017,05,27,11,26,19.70
2017,05,27,11,27,19.70
2017,05,27,11,28,19.80
2017,05,27,11,29,19.90
2017,05,27,11,30,20.00
2017,05,27,11,31,20.10
2017,05,27,11,32,20.20
2017,05,27,11,33,20.20
2017,05,27,11,34,20.20
2017,05,27,11,35,20.30
2017,05,27,11,36,20.40
2017,05,27,11,37,20.50
2017,05,27,11,38,20.50
2017,05,27,11,39,20.60
2017,05,27,11,40,20.60
2017,05,27,11,41,20.60
2017,05,27,11,42,20.70
2017,05,27,11,43,20.60
2017,05,27,11,44,20.60
2017,05,27,11,45,20.60
2017,05,27,11,46,20.60
2017,05,27,11,47,20.60
2017,05,27,11,48,20.60
2017,05,27,11,49,20.60
2017,05,27,11,50,20.60
2017,05,27,11,51,20.60
2017,05,27,11,52,20.70
2017,05,27,11,53,20.70
2017,05,27,11,54,20.70
2017,05,27,11,55,20.70
2017,05,27,11,56,20.70
2017,05,27,11,57,20.70
2017,05,27,11,58,20.80
2017,05,27,11,59,20.80
2017,05,27,12,00,20.80
2017,05,27,12,01,20.90
2017,05,27,12,02,21.00
2017,05,27,12,03,21.10
2017,05,27,12,04,21.10
2017,05,27,12,05,21.20
2017,05,27,12,06,21.20
2017,05,27,12,07,21.30
2017,05,27,12,08,21.30
2017,05,27,12,09,21.30
2017,05,27,12,10,21.40
2017,05,27,12,11,21.40
2017,05,27,12,12,21.40
2017,05,27,12,13,21.30
2017,05,27,12,14,21.40
2017,05,27,12,15,21.40
2017,05,27,12,16,21.40
2017,05,27,12,17,21.40
2017,05,27,12,18,21.40
2017,05,27,12,19,21.50
2017,05,27,12,20,21.50
2017,05,27,12,21,21.60
2017,05,27,12,22,21.50
2017,05,27,12,23,21.50
2017,05,27,12,24,21.50
2017,05,27,12,25,21.40
2017,05,27,12,26,21.40
2017,05,27,12,27,21.40
2017,05,27,12,28,21.40
2017,05,27,12,29,21.30
2017,05,27,12,30,21.30
2017,05,27,12,31,21.30
2017,05,27,12,32,21.30
2017,05,27,12,33,21.30
2017,05,27,12,34,21.30
2017,05,27,12,35,21.30
2017,05,27,12,36,21.40
2017,05,27,12,37,21.40
2017,05,27,12,38,21.50
2017,05,27,12,39,21.60
2017,05,27,12,40,21.70
2017,05,27,12,41,21.90
2017,05,27,12,42,22.00
2017,05,27,12,43,22.10
2017,05,27,12,44,22.10
2017,05,27,12,45,22.10
2017,05,27,12,46,22.10
2017,05,27,12,47,22.10
2017,05,27,12,48,22.10
2017,05,27,12,49,22.10
2017,05,27,12,50,22.10
2017,05,27,12,51,22.10
2017,05,27,12,52,22.20
2017,05,27,12,53,22.20
2017,05,27,12,54,22.20
2017,05,27,12,55,22.30
2017,05,27,12,56,22.30
2017,05,27,12,57,22.40
2017,05,27,12,58,22.40
2017,05,27,12,59,22.40
2017,05,27,13,00,22.40
2017,05,27,13,01,22.40
2017,05,27,13,02,22.30
2017,05,27,13,03,22.30
2017,05,27,13,04,22.30
2017,05,27,13,05,22.20
2017,05,27,13,06,22.20
2017,05,27,13,07,22.20
2017,05,27,13,08,22.20
2017,05,27,13,09,22.20
2017,05,27,13,10,22.30
2017,05,27,13,11,22.30
2017,05,27,13,12,22.30
2017,05,27,13,13,22.40
2017,05,27,13,14,22.40
2017,05,27,13,15,22.40
2017,05,27,13,16,22.50
2017,05,27,13,17,22.60
2017,05,27,13,18,22.60
2017,05,27,13,19,22.70
2017,05,27,13,20,22.70
2017,05,27,13,21,22.70
2017,05,27,13,22,22.70
2017,05,27,13,23,22.70
2017,05,27,13,24,22.70
2017,05,27,13,25,22.70
2017,05,27,13,26,22.70
2017,05,27,13,27,22.70
2017,05,27,13,28,22.60
2017,05,27,13,29,22.60
2017,05,27,13,30,22.60
2017,05,27,13,31,22.50
2017,05,27,13,32,22.50
2017,05,27,13,33,22.40
2017,05,27,13,34,22.40
2017,05,27,13,35,22.30
2017,05,27,13,36,22.30
2017,05,27,13,37,22.30
2017,05,27,13,38,22.20
2017,05,27,13,39,22.20
2017,05,27,13,40,22.10
2017,05,27,13,41,22.10
2017,05,27,13,42,22.10
2017,05,27,13,43,22.10
2017,05,27,13,44,22.10
2017,05,27,13,45,22.00
2017,05,27,13,46,22.00
2017,05,27,13,47,22.00
2017,05,27,13,48,22.00
2017,05,27,13,49,22.00
2017,05,27,13,50,22.00
2017,05,27,13,51,22.10
2017,05,27,13,52,22.10
2017,05,27,13,53,22.20
2017,05,27,13,54,22.30
2017,05,27,13,55,22.30
2017,05,27,13,56,22.30
2017,05,27,13,57,22.30
2017,05,27,13,58,22.30
2017,05,27,13,59,22.30
2017,05,27,14,00,22.40
2017,05,27,14,01,22.40
2017,05,27,14,02,22.40
2017,05,27,14,03,22.40
2017,05,27,14,04,22.40
2017,05,27,14,05,22.30
2017,05,27,14,06,22.30
2017,05,27,14,07,22.30
2017,05,27,14,08,22.30
2017,05,27,14,09,22.30
2017,05,27,14,10,22.20
2017,05,27,14,11,22.20
2017,05,27,14,12,22.20
2017,05,27,14,13,22.20
2017,05,27,14,14,22.30
2017,05,27,14,15,22.30
2017,05,27,14,16,22.40
2017,05,27,14,17,22.50
2017,05,27,14,18,22.50
2017,05,27,14,19,22.70
2017,05,27,14,20,22.80
2017,05,27,14,21,22.90
2017,05,27,14,22,23.00
2017,05,27,14,23,23.10
2017,05,27,14,24,23.10
2017,05,27,14,25,23.20
2017,05,27,14,26,23.30
2017,05,27,14,27,23.30
2017,05,27,14,28,23.40
2017,05,27,14,29,23.50
2017,05,27,14,30,23.60
2017,05,27,14,31,23.60
2017,05,27,14,32,23.60
2017,05,27,14,33,23.60
2017,05,27,14,34,23.60
2017,05,27,14,35,23.60
2017,05,27,14,36,23.60
2017,05,27,14,37,23.60
2017,05,27,14,38,23.60
2017,05,27,14,39,23.60
2017,05,27,14,40,23.60
2017,05,27,14,41,23.60
2017,05,27,14,42,23.60
2017,05,27,14,43,23.50
2017,05,27,14,44,23.50
2017,05,27,14,45,23.50
2017,05,27,14,46,23.60
2017,05,27,14,47,23.60
2017,05,27,14,48,23.70
2017,05,27,14,49,23.70
2017,05,27,14,50,23.70
2017,05,27,14,51,23.70
2017,05,27,14,52,23.70
2017,05,27,14,53,23.70
2017,05,27,14,54,23.70
2017,05,27,14,55,23.70
2017,05,27,14,56,23.80
2017,05,27,14,57,23.80
2017,05,27,14,58,23.80
2017,05,27,14,59,23.90
2017,05,27,15,00,23.90
2017,05,27,15,01,24.00
2017,05,27,15,02,24.00
2017,05,27,15,03,24.00
2017,05,27,15,04,23.90
2017,05,27,15,05,23.80
2017,05,27,15,06,23.70
2017,05,27,15,07,23.70
2017,05,27,15,08,23.60
2017,05,27,15,09,23.60
2017,05,27,15,10,23.60
2017,05,27,15,11,23.60
2017,05,27,15,12,23.50
2017,05,27,15,13,23.50
2017,05,27,15,14,23.40
2017,05,27,15,15,23.40
2017,05,27,15,16,23.30
2017,05,27,15,17,23.30
2017,05,27,15,18,23.30
2017,05,27,15,19,23.30
2017,05,27,15,20,23.40
2017,05,27,15,21,23.50
2017,05,27,15,22,23.60
2017,05,27,15,23,23.70
2017,05,27,15,24,23.80
2017,05,27,15,25,23.80
2017,05,27,15,26,23.80
2017,05,27,15,27,23.80
2017,05,27,15,28,23.70
2017,05,27,15,29,23.70
2017,05,27,15,30,23.60
2017,05,27,15,31,23.60
2017,05,27,15,32,23.60
2017,05,27,15,33,23.50
2017,05,27,15,34,23.50
2017,05,27,15,35,23.40
2017,05,27,15,36,23.40
2017,05,27,15,37,23.40
2017,05,27,15,38,23.50
2017,05,27,15,39,23.60
2017,05,27,15,40,23.60
2017,05,27,15,41,23.70
2017,05,27,15,42,23.70
2017,05,27,15,43,23.70
2017,05,27,15,44,23.70
2017,05,27,15,45,23.70
2017,05,27,15,46,23.70
2017,05,27,15,47,23.80
2017,05,27,15,48,23.70
2017,05,27,15,49,23.70
2017,05,27,15,50,23.70
2017,05,27,15,51,23.70
2017,05,27,15,52,23.70
2017,05,27,15,53,23.80
2017,05,27,15,54,23.80
2017,05,27,15,55,23.90
2017,05,27,15,56,23.90
2017,05,27,15,57,23.90
2017,05,27,15,58,23.90
2017,05,27,15,59,23.90
2017,05,27,16,00,23.90
2017,05,27,16,01,24.00
2017,05,27,16,02,24.00
2017,05,27,16,03,24.10
2017,05,27,16,04,24.20
2017,05,27,16,05,24.20
2017,05,27,16,06,24.20
2017,05,27,16,07,24.20
2017,05,27,16,08,24.30
2017,05,27,16,09,24.30
2017,05,27,16,10,24.30
2017,05,27,16,11,24.30
2017,05,27,16,12,24.40
2017,05,27,16,13,24.50
2017,05,27,16,14,24.50
2017,05,27,16,15,24.60
2017,05,27,16,16,24.60
2017,05,27,16,17,24.60
2017,05,27,16,18,24.60
2017,05,27,16,19,24.70
2017,05,27,16,20,24.70
2017,05,27,16,21,24.70
2017,05,27,16,22,24.70
2017,05,27,16,23,24.70
2017,05,27,16,24,24.70
2017,05,27,16,25,24.70
2017,05,27,16,26,24.60
2017,05,27,16,27,24.60
2017,05,27,16,28,24.50
2017,05,27,16,29,24.40
2017,05,27,16,30,24.40
2017,05,27,16,31,24.30
2017,05,27,16,32,24.30
2017,05,27,16,33,24.30
2017,05,27,16,34,24.30
2017,05,27,16,35,24.30
2017,05,27,16,36,24.20
2017,05,27,16,37,24.20
2017,05,27,16,38,24.20
2017,05,27,16,39,24.20
2017,05,27,16,40,24.10
2017,05,27,16,41,24.10
2017,05,27,16,42,24.10
2017,05,27,16,43,24.10
2017,05,27,16,44,24.10
2017,05,27,16,45,24.10
2017,05,27,16,46,24.10
2017,05,27,16,47,24.20
2017,05,27,16,48,24.30
2017,05,27,16,49,24.40
2017,05,27,16,50,24.40
2017,05,27,16,51,24.50
2017,05,27,16,52,24.60
2017,05,27,16,53,24.70
2017,05,27,16,54,24.70
2017,05,27,16,55,24.70
2017,05,27,16,56,24.70
2017,05,27,16,57,24.70
2017,05,27,16,58,24.70
2017,05,27,16,59,24.70
2017,05,27,17,00,24.70
2017,05,27,17,01,24.60
2017,05,27,17,02,24.50
2017,05,27,17,03,24.40
2017,05,27,17,04,24.40
2017,05,27,17,05,24.30
2017,05,27,17,06,24.30
2017,05,27,17,07,24.20
2017,05,27,17,08,24.20
2017,05,27,17,09,24.20
2017,05,27,17,10,24.20
2017,05,27,17,11,24.20
2017,05,27,17,12,24.30
2017,05,27,17,13,24.30
2017,05,27,17,14,24.40
2017,05,27,17,15,24.40
2017,05,27,17,16,24.40
2017,05,27,17,17,24.40
2017,05,27,17,18,24.40
2017,05,27,17,19,24.40